Historyczne dane pomiarowe

Dodano dane terminowe – wersja testowa.

Dane z okresu 1951-2019

Wersja bazy: 1.34 [2019-03-16, lista zmian], aktualizacja planowana na 2019-04-15

Dane meteo z obszaru Polski uzyskane na podstawie danych udostępnionych przez Instytut Meteorologii i Gospodarki Wodnej – Państwowy Instytut Badawczy.

 

Wybierz Datę:    

       

TemperaturaWilgotnośćWiatrCiśnienieOpadyŚniegCzas trwania zjawisk
 Stacja t tx tn tng RH VA  wxwx mslp ppp RRR   cm mm wxwxwxwxwxwxwx
1956-11-09 -1.8 1.5 -3.9 -8.3 88.0- 3.7 3.0---- 0.0------------
1956-11-08 -1.6 3.5 -3.9 -8.2 68.3- 1.7 0.7---- 0.0------------
1956-11-07 0.8 4.0 -2.4 -1.7 72.8- 4.0 3.3---- 0.0------------
1956-11-06 1.4 4.5 -1.4 -0.7 85.0- 5.3 3.3---- 0.0------------
1956-11-05 3.8 8.0 2.1 4.2 90.5- 3.0 3.7---- 1.5------------
1956-11-04 1.4 4.5 -5.2 -5.8 75.8- 4.3 4.0---- 0.0------------
1956-11-03 -0.8 0.1 -3.6 -4.8 58.8- 0.7 0.0---- 0.0------------
1956-11-02 1.2 5.0 -1.9 -4.2 96.5- 5.3 0.0---- 0.0------------
1956-11-01 0.6 2.4 -7.4 -9.8 80.5- 6.3 1.3---- 0.0------------
1956-10-31 -5.7 0.0 -7.9 -9.8 89.5- 0.0 1.7---- 0.0------------
1956-10-30 -0.4 3.7 -1.6 0.3 98.0- 8.0 3.7---- 0.0------------
1956-10-29 4.2 7.6 3.5 3.7 97.3- 8.0 1.0---- 0.0------------
1956-10-28 8.2 9.5 7.4 8.1 99.0- 8.0 2.7---- 10.4------------
1956-10-27 8.4 9.5 5.9 5.2 98.8- 8.0 3.0---- 6.1------------
1956-10-26 7.2 11.5 6.6 6.0 97.8- 8.0 0.3---- 9.0------------
1956-10-25 11.2 14.6 8.6 6.2 94.8- 5.0 2.0---- 6.0------------
1956-10-24 11.2 15.2 5.8 1.7 96.3- 7.0 1.0---- 0.0------------
1956-10-23 8.5 12.3 5.1 7.9 90.0- 4.7 2.7---- 0.0------------
1956-10-22 11.4 12.5 8.6 3.2 90.3- 8.0 3.3---- 0.0------------
1956-10-21 11.8 17.3 9.6 5.2 95.0- 3.3 0.7---- 0.0------------
1956-10-20 10.4 14.7 6.0 1.8 95.5- 7.0 1.3---- 0.0------------
1956-10-19 10.3 14.2 7.1 9.8 97.3- 6.3 1.3---- 0.0------------
1956-10-18 11.2 14.5 4.4 -1.1 97.8- 8.0 2.3---- 2.7------------
1956-10-17 7.0 18.5 0.6 -4.2 88.8- 0.0 0.7---- 0.0------------
1956-10-16 5.2 13.9 -0.5 -4.8 93.5- 0.3 0.0---- 0.0------------
1956-10-15 6.0 13.0 2.4 -2.2 94.0- 0.0 0.3---- 0.0------------
1956-10-14 7.4 11.9 3.6 4.5 87.8- 0.3 5.0---- 0.0------------
1956-10-13 11.0 12.5 8.0 5.4 78.8- 7.0 9.3---- 0.7------------
1956-10-12 9.0 12.2 8.1 7.6 94.8- 4.7 7.0---- 0.0------------
1956-10-11 8.4 10.5 3.7 0.3 92.3- 6.7 2.7---- 0.0------------
1956-10-10 6.3 16.4 -1.1 -5.8 94.5- 1.3 1.0---- 0.0------------
1956-10-09 7.4 9.0 2.3 -0.8 94.3- 5.3 2.7---- 0.0------------
1956-10-08 5.8 9.8 3.3 -0.5 91.8- 3.3 3.0---- 0.7------------
1956-10-07 6.6 9.3 5.6 4.6 85.5- 6.3 6.0---- 0.3------------
1956-10-06 6.4 7.6 4.6 0.6 93.8- 8.0 3.0---- 12.5------------
1956-10-05 8.5 14.0 5.5 3.7 96.5- 5.3 0.0---- 2.7------------
1956-10-04 9.8 15.5 6.1 1.3 92.0- 6.0 2.3---- 0.5------------
1956-10-03 13.0 17.0 10.1 5.2 90.8- 4.0 2.7---- 0.6------------
1956-10-02 16.3 26.4 9.0 4.7 85.8- 1.7 1.7---- 0.0------------
1956-10-01 15.6 24.2 7.4 2.3 85.5- 2.7 1.3---- 0.0------------
1956-09-30 11.8 18.0 8.1 2.5 92.0- 2.0 1.3---- 0.0------------
1956-09-29 14.2 18.2 11.6 12.7 89.5- 3.7 2.0---- 0.0------------
1956-09-28 15.6 19.0 10.9 5.2 88.3- 6.0 3.0---- 0.2------------
1956-09-27 15.8 24.4 11.3 5.1 93.5- 0.3 1.3---- 0.0------------
1956-09-26 15.8 24.3 8.8 3.3 67.8- 0.0 3.0---- 0.0------------
1956-09-25 12.0 20.9 2.6 -2.2 81.5- 0.0 1.0---- 0.0------------
1956-09-24 9.0 16.5 3.8 0.5 65.8- 0.0 2.0---- 0.0------------
1956-09-23 11.3 19.0 7.4 3.2 79.0- 0.0 1.0---- 0.0------------
1956-09-22 11.6 20.0 4.9 0.6 82.3- 0.0 1.0---- 0.0------------
1956-09-21 11.0 19.0 4.6 -0.7 83.0- 0.0 0.3---- 0.0------------
1956-09-20 9.9 19.0 3.4 -1.2 83.3- 0.3 1.0---- 0.0------------
1956-09-19 9.1 18.0 2.5 -0.7 87.8- 0.0 0.3---- 0.0------------
1956-09-18 9.6 15.0 5.1 0.1 90.0- 1.3 1.0---- 0.0------------
1956-09-17 9.2 14.5 6.8 5.8 93.5- 4.0 4.3---- 0.4------------
1956-09-16 10.8 15.0 5.9 0.7 79.3- 5.3 3.3---- 0.0------------
1956-09-15 11.6 16.0 6.7 2.7 75.3- 4.0 1.7---- 0.0------------
1956-09-14 11.0 17.0 5.1 0.8 91.3- 2.0 0.7---- 0.0------------
1956-09-13 10.8 15.4 7.7 5.2 87.0- 5.3 5.0---- 2.2------------
1956-09-12 11.5 15.5 8.6 11.6 89.5- 5.3 4.0---- 2.4------------
1956-09-11 14.4 19.0 12.9 7.2 97.0- 6.0 0.0---- 8.6------------
365.2 ms

 

Źródłem pochodzenia danych jest Instytut Meteorologii i Gospodarki Wodnej – Państwowy Instytut Badawczy. Dane Instytutu Meteorologii i Gospodarki Wodnej – Państwowego Instytutu Badawczego zostały przetworzone.

Dane źródłowe można odnaleźć na stronie https://dane.imgw.pl